SCP
0 0 0 -0 0 0 0 0 0 0 0 0 0 0 -0 -0 0 0 0 0 0 0 0 0 0 0 0 0 0 0 0 0 0 0 0 0 0 0 0 0 0 0 0
0 0 0 0 0 0 0 0 0 0 0 0 0 0 0 0 0 0 0 0 0 0 0 0 0 0 0 0 0 0 0 0 0 0 0 0 0 0 0 0 0 0 0
0 0 0 0 0 0 -0 0 0 0 0 0 0 0 0 0 0 0 0 0 0 0 0 0 0 0 0 0 0 0 0 0 0 0 0 0 0 0 0 0 0 0 0
0 0 0 0 0 0 0 0 0 0 0 0 0 0 0 0 0 0 0 0 0 0 0 0 0 0 0 0 0 0 0 0 0 0 0 0 0 0 0 0 0 0 0
0 0 0 0 0 0 0 0 0 0 0 0 0 0 0 0 0 0 0 0 0 0 0 0 0 0 0 0 0 0 0 0 0 0 0 0 0 0 0 0 0 0 0
0 0 0 0 0 0 0 0 0 0 -0 0 -0 0 0 0 0 0 0 0 0 0 0 0 0 0 0 0 0 0 0 0 0 0 0 0 0 0 0 0 0 0 0
0 0 0 0 0 0 0 0 0 0 0 0 0 0 0 0 0 0 0 0 0 0 0 0 0 0 0 0 0 0 0 0 0 0 0 0 0 0 0 0 0 0 0
0 0 0 0 0 0 0 0 0 -0 0 0 0 0 0 0 0 0 0 0 0 0 0 0 0 0 0 0 0 0 0 0 0 0 0 0 0 0 0 0 0 0 0
0 0 0 0 0 0 0 0 0 0 -0 0 0 0 0 0 0 0 0 0 0 0 0 0 0 0 0 0 0 0 0 0 0 0 0 0 0 0 0 0 0 0 0
0 0 0 0 0 0 0 0 0 0 0 0 0 0 0 0 0 0 0 0 0 0 0 0 0 0 0 0 0 0 0 0 0 0 0 0 0 0 0 0 0 0 0
0 -0 0 0 0 0 0 0 0 0 0 0 0 0 0 0 0 0 0 0 0 0 0 0 0 0 0 0 0 0 0 0 0 0 0 0 0 0 0 0 0 0 0
0 0 -0 0 0 0 0 0 0 0 0 -0 0 0 0 0 0 0 0 0 0 0 0 0 0 0 0 0 0 0 0 0 0 0 0 0 0 0 0 0 0 0 0
0 0 0 0 -0 0 0 0 0 0 0 0 0 0 0 0 0 0 0 0 0 0 0 0 0 0 0 0 0 0 0 0 0 0 0 0 0 0 0 0 0 0 0
0 0 0 0 0 0 0 0 0 0 0 0 0 0 0 0 0 0 0 0 0 0 0 0 0 0 0 0 0 0 0 0 0 0 0 0 0 0 0 0 0 0 0
-0 0 0 0 0 0 0 0 0 0 0 0 0 0 0 0 0 0 0 0 0 0 0 0 0 0 0 0 0 0 0 0 0 0 0 0 0 0 0 0 0 0 0
0 0 0 0 0 0 0 0 0 0 1 1 0 0 0 0 0 0 0 0 0 0 0 0 0 0 0 0 0 0 0 0 0 0 0 0 0 0 0 0 0 0 0
0 0 0 0 0 0 0 0 0 0 0 0 0 0 0 0 0 0 0 0 0 0 0 0 0 0 1 0 0 0 0 0 0 0 0 0 0 0 0 0 0 0 0
0 0 0 0 0 0 0 0 0 0 0 0 0 0 0 0 0 0 0 0 0 0 0 0 0 0 0 0 0 0 0 0 0 0 0 0 0 0 0 0 0 0 0
0 0 0 0 0 0 1 0 0 0 0 0 0 0 0 0 0 0 0 0 0 0 0 0 0 0 0 0 0 0 0 0 0 0 0 0 0 0 0 0 0 0 0
0 0 0 0 0 0 0 0 0 0 0 0 0 0 0 0 0 0 0 0 0 0 0 0 0 0 0 0 0 0 0 0 0 0 0 0 0 0 0 0 0 0 0
0 0 0 0 0 0 0 0 0 0 0 0 0 0 0 0 0 0 0 0 0 0 0 0 0 0 0 0 0 0 0 0 0 0 0 0 0 0 0 0 0 0 0
0 0 0 0 0 0 0 0 0 0 0 0 0 0 0 0 0 0 0 0 0 0 0 0 0 0 0 0 0 0 0 0 0 0 0 0 0 0 0 0 0 0 0
0 0 0 0 0 0 0 0 0 0 0 0 0 0 0 0 0 0 0 0 0 0 0 0 0 0 0 0 0 0 0 0 0 0 0 0 0 0 0 0 0 0 0
0 0 0 0 0 0 0 0 0 0 0 0 0 0 1 1 1 1 1 1 1 0 0 0 0 0 0 0 0 0 0 0 0 0 0 0 0 0 0 0 0 0 0
0 0 0 0 0 0 0 0 0 0 0 0 0 0 1 1 0 -0 0 0 0 0 0 0 0 0 0 0 0 0 0 0 0 0 0 0 0 0 0 0 0 0 0
0 0 0 0 0 0 0 0 0 0 0 0 1 1 0 0 0 0 0 0 0 0 0 0 0 0 0 0 0 0 0 0 0 0 0 0 0 0 0 0 0 0 0
Wind_Speed_500mb
2 1 5 3 5 5 9 8 6 3 2 3 1 5 9 12 3 2 5 7 17 17 16 17 17 15 14 12 11 9 7 8 10 11 12 14 18 22 26 31 36 39 41
3 2 4 5 6 6 7 6 5 1 2 3 3 5 10 12 12 10 10 8 9 21 24 24 23 22 18 16 13 8 7 8 9 10 12 15 18 20 22 26 29 32 36
9 8 6 4 9 8 7 8 4 3 1 1 5 3 6 11 14 15 13 15 12 12 10 20 27 23 22 20 17 16 15 15 16 14 15 17 17 19 22 25 26 27 30
12 6 8 10 12 5 6 6 3 4 3 4 7 8 7 10 12 12 16 16 14 17 19 17 15 24 22 20 20 21 22 23 24 25 25 24 25 24 24 23 25 28 29
17 8 7 11 9 8 7 4 5 6 6 6 8 12 12 13 14 13 14 15 17 18 12 17 22 26 26 26 28 29 30 30 32 34 34 34 35 33 32 31 30 29 29
20 17 8 14 8 9 8 8 5 6 7 7 6 9 13 14 15 16 17 16 14 14 17 18 22 25 31 32 34 36 40 41 40 40 40 41 40 39 40 40 39 37 35
21 20 12 14 10 10 12 8 6 8 5 7 6 8 12 18 20 19 19 18 20 20 19 22 25 21 28 24 31 40 38 37 41 43 44 46 48 47 48 48 45 43 41
23 22 17 14 16 12 16 13 11 8 8 8 9 11 19 22 23 21 23 23 25 27 23 21 30 26 26 29 35 38 47 46 41 40 42 45 45 45 46 46 46 45 46
26 25 22 17 19 17 15 16 13 14 14 9 15 15 13 13 16 20 27 27 31 35 37 37 36 34 30 28 29 29 46 42 36 39 43 45 44 45 46 47 47 48 50
26 26 26 23 22 17 16 19 18 19 18 15 15 11 15 22 19 18 16 28 28 26 23 28 27 30 30 31 31 35 50 56 48 46 46 48 50 52 54 55 54 54 56
26 26 28 27 25 23 20 26 20 23 20 20 21 17 22 18 24 22 28 25 24 28 28 26 25 27 27 32 35 38 46 48 44 44 45 48 49 50 53 55 58 61 63
26 31 27 31 32 26 24 23 23 25 26 26 24 26 25 25 27 32 33 34 35 32 28 29 32 32 32 31 32 40 51 53 43 45 46 47 49 49 49 51 54 57 60
26 29 27 35 32 31 26 28 28 28 30 29 26 22 26 25 30 33 36 40 39 38 39 36 32 31 31 30 29 41 46 51 49 46 43 47 47 46 47 49 51 54 57
32 29 32 32 37 32 32 31 34 31 32 33 32 34 28 28 31 35 45 38 43 43 41 39 34 30 29 30 31 42 53 38 53 50 42 42 44 45 47 49 52 55 58
23 22 27 35 31 31 32 33 32 31 35 37 36 38 37 37 29 36 40 35 39 44 43 37 32 30 35 35 37 38 42 43 51 54 48 47 47 48 50 53 55 57 59
32 33 29 31 30 31 30 31 34 36 40 42 38 39 37 36 26 35 36 36 39 44 51 40 37 36 30 31 37 48 45 49 50 51 55 54 57 56 57 57 58 59 59
26 27 27 28 31 34 34 39 40 36 34 36 40 40 34 33 35 39 37 38 40 40 47 45 38 37 37 37 39 44 47 46 46 46 51 59 64 59 59 60 56 55 59
22 21 25 26 26 29 27 31 27 29 32 38 38 40 35 35 38 38 34 36 38 44 44 51 49 47 48 45 48 50 48 43 48 46 52 53 57 55 64 69 62 57 60
21 23 24 21 25 22 31 25 34 28 31 39 35 32 34 34 38 34 35 36 36 38 41 45 50 47 47 46 49 51 50 47 51 41 46 49 54 61 66 65 60 61 68
18 18 23 24 26 25 30 30 33 42 40 30 31 30 34 36 37 35 34 36 36 38 40 46 51 54 51 48 48 52 50 45 41 46 47 51 52 52 55 57 60 62 55
18 22 23 20 25 27 23 29 31 30 29 30 32 37 40 39 40 43 39 38 40 40 42 46 50 52 53 49 46 40 42 48 50 49 55 52 50 48 55 45 49 49 52
8 13 16 21 19 21 30 38 38 35 32 34 39 41 40 43 52 49 46 49 52 56 55 50 49 51 56 58 55 50 42 44 54 50 53 59 61 52 48 48 48 57 64
15 14 15 15 19 20 31 35 38 40 43 42 40 42 43 45 49 47 51 52 58 59 60 62 65 66 64 62 63 68 58 50 64 65 58 63 53 54 54 54 52 57 64
15 16 16 18 21 20 33 35 33 38 41 42 37 42 48 55 62 62 55 53 54 56 54 59 56 76 63 61 59 67 72 74 76 70 50 63 56 58 49 50 55 56 51
17 17 18 21 23 23 30 37 35 37 33 39 42 52 56 62 62 60 44 44 48 55 63 72 72 79 67 67 65 79 77 71 72 62 51 54 55 49 49 54 45 39 50
20 20 23 24 27 31 30 34 38 31 38 43 46 50 59 59 54 47 47 65 72 70 72 63 57 59 74 72 60 51 52 60 63 55 56 45 50 50 56 54 38 51 53
Wind_Direction_500mb
229 2 293 319 318 329 326 329 323 275 236 294 176 189 185 199 218 137 242 240 233 217 225 234 244 249 271 277 284 294 302 289 264 260 262 265 264 261 257 255 254 255 257
240 266 298 290 297 314 323 335 287 162 265 218 248 169 175 198 206 239 194 245 281 261 254 245 242 247 263 268 275 278 288 296 288 271 275 282 275 272 273 271 267 263 260
277 188 285 306 291 297 327 332 333 319 332 300 240 208 199 201 205 218 234 227 261 255 298 272 254 260 272 264 267 272 280 288 292 291 291 293 294 287 284 279 278 276 271
226 285 306 294 266 295 307 304 275 273 253 241 226 222 224 218 206 215 216 223 242 246 292 287 286 277 264 264 272 279 285 287 289 288 288 288 290 291 292 289 281 278 279
238 237 262 278 289 278 286 273 273 269 261 269 237 213 216 213 216 223 211 226 244 241 264 256 296 294 275 281 278 278 279 279 280 283 284 286 286 285 284 287 288 286 282
235 244 261 257 266 269 266 244 240 261 245 275 258 230 217 217 228 232 233 230 232 242 253 253 281 295 290 295 297 290 279 275 274 275 276 276 279 282 283 282 282 281 284
234 240 255 265 274 252 244 260 269 286 230 286 257 234 232 231 225 231 234 240 243 254 256 255 271 266 283 288 297 290 288 280 273 270 271 272 275 277 278 278 277 274 277
230 240 244 250 255 245 267 253 248 234 257 264 285 290 266 217 236 238 232 247 257 257 265 265 261 265 270 268 279 280 283 283 280 277 277 278 279 279 276 274 273 271 271
227 238 239 235 244 247 252 267 251 243 261 246 255 276 308 15 326 253 235 241 252 254 259 272 266 275 268 266 263 283 279 279 282 282 281 280 280 279 278 275 272 269 270
228 229 241 237 236 240 249 256 256 240 266 266 251 241 263 287 298 297 268 266 255 266 275 271 264 263 261 266 266 258 262 272 280 282 281 281 281 280 278 276 273 270 268
233 229 231 232 234 242 243 252 243 254 248 261 269 284 267 268 271 267 286 289 274 275 273 267 270 267 261 266 265 267 271 282 291 291 290 288 287 284 283 282 281 278 274
237 239 222 231 236 240 246 253 259 255 256 244 261 273 292 295 288 286 282 290 290 283 278 271 273 270 268 265 265 263 268 277 287 290 290 288 287 285 284 282 280 278 278
233 243 236 227 239 247 242 248 256 256 259 251 259 263 276 285 283 286 292 290 288 289 285 276 274 265 265 265 266 266 278 288 297 293 290 287 287 287 287 286 284 283 281
247 233 237 245 243 242 252 249 246 249 260 259 262 264 271 272 277 285 287 288 288 287 285 280 274 258 266 266 262 266 276 292 290 296 295 289 290 291 291 291 290 287 285
244 236 236 246 249 251 252 251 257 253 256 258 265 273 277 277 274 278 283 277 277 279 276 279 282 280 262 261 265 267 280 287 288 295 297 294 292 288 292 296 293 290 287
234 238 244 251 247 246 253 251 253 260 255 266 269 276 277 277 274 278 274 271 267 270 276 276 276 274 275 264 262 278 283 286 292 300 299 302 300 298 300 294 293 291 290
237 249 254 259 255 259 243 242 248 250 257 267 279 278 272 277 284 281 275 269 267 267 271 276 274 275 279 278 273 277 280 282 287 290 290 287 292 304 303 302 298 291 291
244 254 259 263 263 259 258 258 260 265 268 273 271 268 269 273 273 277 273 270 266 264 272 279 276 277 276 275 277 275 277 283 282 283 280 297 308 305 304 302 303 300 301
255 254 259 252 254 254 265 269 272 271 269 269 268 268 268 275 279 274 262 265 267 271 273 272 280 281 280 276 276 278 278 284 288 294 302 299 296 294 294 299 306 304 310
265 265 270 259 252 259 247 245 259 267 278 271 267 271 273 274 270 267 264 263 267 270 274 275 276 278 279 278 274 278 272 283 282 288 291 294 297 295 299 300 300 301 306
263 274 267 268 283 277 270 271 278 281 279 275 275 276 280 278 270 261 257 261 261 266 271 274 277 281 279 278 276 279 278 282 284 289 297 296 292 287 285 292 294 299 293
317 300 287 284 294 291 274 274 283 281 279 276 275 277 279 278 277 281 277 271 269 270 269 271 275 278 276 279 283 282 277 279 285 286 295 295 297 303 299 294 289 287 288
349 333 315 312 304 298 288 291 294 292 292 288 277 277 279 282 280 278 276 277 278 279 279 280 276 276 283 281 268 269 271 273 277 287 288 297 305 297 299 297 297 294 296
338 323 311 305 300 302 294 303 306 302 302 299 291 289 289 288 279 271 272 275 276 278 283 287 276 288 281 276 274 272 271 275 279 280 289 288 297 297 300 293 296 298 291
326 321 316 311 309 306 300 308 313 309 300 296 294 293 295 292 285 311 285 287 278 283 290 294 282 270 265 269 272 279 269 275 279 281 277 284 294 293 297 297 301 289 291
324 313 312 310 304 303 302 312 311 306 297 299 301 305 300 306 300 316 317 308 305 310 307 290 289 284 285 287 291 287 286 273 270 276 287 289 298 297 301 294 291 298 317
Wind_Speed_850mb
2 1 5 3 5 5 9 8 6 3 2 3 1 5 9 12 3 2 5 7 17 17 16 17 17 15 14 12 11 9 7 8 10 11 12 14 18 22 26 31 36 39 41
3 2 4 5 6 6 7 6 5 1 2 3 3 5 10 12 12 10 10 8 9 21 24 24 23 22 18 16 13 8 7 8 9 10 12 15 18 20 22 26 29 32 36
9 8 6 4 9 8 7 8 4 3 1 1 5 3 6 11 14 15 13 15 12 12 10 20 27 23 22 20 17 16 15 15 16 14 15 17 17 19 22 25 26 27 30
12 6 8 10 12 5 6 6 3 4 3 4 7 8 7 10 12 12 16 16 14 17 19 17 15 24 22 20 20 21 22 23 24 25 25 24 25 24 24 23 25 28 29
17 8 7 11 9 8 7 4 5 6 6 6 8 12 12 13 14 13 14 15 17 18 12 17 22 26 26 26 28 29 30 30 32 34 34 34 35 33 32 31 30 29 29
20 17 8 14 8 9 8 8 5 6 7 7 6 9 13 14 15 16 17 16 14 14 17 18 22 25 31 32 34 36 40 41 40 40 40 41 40 39 40 40 39 37 35
21 20 12 14 10 10 12 8 6 8 5 7 6 8 12 18 20 19 19 18 20 20 19 22 25 21 28 24 31 40 38 37 41 43 44 46 48 47 48 48 45 43 41
23 22 17 14 16 12 16 13 11 8 8 8 9 11 19 22 23 21 23 23 25 27 23 21 30 26 26 29 35 38 47 46 41 40 42 45 45 45 46 46 46 45 46
26 25 22 17 19 17 15 16 13 14 14 9 15 15 13 13 16 20 27 27 31 35 37 37 36 34 30 28 29 29 46 42 36 39 43 45 44 45 46 47 47 48 50
26 26 26 23 22 17 16 19 18 19 18 15 15 11 15 22 19 18 16 28 28 26 23 28 27 30 30 31 31 35 50 56 48 46 46 48 50 52 54 55 54 54 56
26 26 28 27 25 23 20 26 20 23 20 20 21 17 22 18 24 22 28 25 24 28 28 26 25 27 27 32 35 38 46 48 44 44 45 48 49 50 53 55 58 61 63
26 31 27 31 32 26 24 23 23 25 26 26 24 26 25 25 27 32 33 34 35 32 28 29 32 32 32 31 32 40 51 53 43 45 46 47 49 49 49 51 54 57 60
26 29 27 35 32 31 26 28 28 28 30 29 26 22 26 25 30 33 36 40 39 38 39 36 32 31 31 30 29 41 46 51 49 46 43 47 47 46 47 49 51 54 57
32 29 32 32 37 32 32 31 34 31 32 33 32 34 28 28 31 35 45 38 43 43 41 39 34 30 29 30 31 42 53 38 53 50 42 42 44 45 47 49 52 55 58
23 22 27 35 31 31 32 33 32 31 35 37 36 38 37 37 29 36 40 35 39 44 43 37 32 30 35 35 37 38 42 43 51 54 48 47 47 48 50 53 55 57 59
32 33 29 31 30 31 30 31 34 36 40 42 38 39 37 36 26 35 36 36 39 44 51 40 37 36 30 31 37 48 45 49 50 51 55 54 57 56 57 57 58 59 59
26 27 27 28 31 34 34 39 40 36 34 36 40 40 34 33 35 39 37 38 40 40 47 45 38 37 37 37 39 44 47 46 46 46 51 59 64 59 59 60 56 55 59
22 21 25 26 26 29 27 31 27 29 32 38 38 40 35 35 38 38 34 36 38 44 44 51 49 47 48 45 48 50 48 43 48 46 52 53 57 55 64 69 62 57 60
21 23 24 21 25 22 31 25 34 28 31 39 35 32 34 34 38 34 35 36 36 38 41 45 50 47 47 46 49 51 50 47 51 41 46 49 54 61 66 65 60 61 68
18 18 23 24 26 25 30 30 33 42 40 30 31 30 34 36 37 35 34 36 36 38 40 46 51 54 51 48 48 52 50 45 41 46 47 51 52 52 55 57 60 62 55
18 22 23 20 25 27 23 29 31 30 29 30 32 37 40 39 40 43 39 38 40 40 42 46 50 52 53 49 46 40 42 48 50 49 55 52 50 48 55 45 49 49 52
8 13 16 21 19 21 30 38 38 35 32 34 39 41 40 43 52 49 46 49 52 56 55 50 49 51 56 58 55 50 42 44 54 50 53 59 61 52 48 48 48 57 64
15 14 15 15 19 20 31 35 38 40 43 42 40 42 43 45 49 47 51 52 58 59 60 62 65 66 64 62 63 68 58 50 64 65 58 63 53 54 54 54 52 57 64
15 16 16 18 21 20 33 35 33 38 41 42 37 42 48 55 62 62 55 53 54 56 54 59 56 76 63 61 59 67 72 74 76 70 50 63 56 58 49 50 55 56 51
17 17 18 21 23 23 30 37 35 37 33 39 42 52 56 62 62 60 44 44 48 55 63 72 72 79 67 67 65 79 77 71 72 62 51 54 55 49 49 54 45 39 50
20 20 23 24 27 31 30 34 38 31 38 43 46 50 59 59 54 47 47 65 72 70 72 63 57 59 74 72 60 51 52 60 63 55 56 45 50 50 56 54 38 51 53
Wind_Direction_850mb
229 2 293 319 318 329 326 329 323 275 236 294 176 189 185 199 218 137 242 240 233 217 225 234 244 249 271 277 284 294 302 289 264 260 262 265 264 261 257 255 254 255 257
240 266 298 290 297 314 323 335 287 162 265 218 248 169 175 198 206 239 194 245 281 261 254 245 242 247 263 268 275 278 288 296 288 271 275 282 275 272 273 271 267 263 260
277 188 285 306 291 297 327 332 333 319 332 300 240 208 199 201 205 218 234 227 261 255 298 272 254 260 272 264 267 272 280 288 292 291 291 293 294 287 284 279 278 276 271
226 285 306 294 266 295 307 304 275 273 253 241 226 222 224 218 206 215 216 223 242 246 292 287 286 277 264 264 272 279 285 287 289 288 288 288 290 291 292 289 281 278 279
238 237 262 278 289 278 286 273 273 269 261 269 237 213 216 213 216 223 211 226 244 241 264 256 296 294 275 281 278 278 279 279 280 283 284 286 286 285 284 287 288 286 282
235 244 261 257 266 269 266 244 240 261 245 275 258 230 217 217 228 232 233 230 232 242 253 253 281 295 290 295 297 290 279 275 274 275 276 276 279 282 283 282 282 281 284
234 240 255 265 274 252 244 260 269 286 230 286 257 234 232 231 225 231 234 240 243 254 256 255 271 266 283 288 297 290 288 280 273 270 271 272 275 277 278 278 277 274 277
230 240 244 250 255 245 267 253 248 234 257 264 285 290 266 217 236 238 232 247 257 257 265 265 261 265 270 268 279 280 283 283 280 277 277 278 279 279 276 274 273 271 271
227 238 239 235 244 247 252 267 251 243 261 246 255 276 308 15 326 253 235 241 252 254 259 272 266 275 268 266 263 283 279 279 282 282 281 280 280 279 278 275 272 269 270
228 229 241 237 236 240 249 256 256 240 266 266 251 241 263 287 298 297 268 266 255 266 275 271 264 263 261 266 266 258 262 272 280 282 281 281 281 280 278 276 273 270 268
233 229 231 232 234 242 243 252 243 254 248 261 269 284 267 268 271 267 286 289 274 275 273 267 270 267 261 266 265 267 271 282 291 291 290 288 287 284 283 282 281 278 274
237 239 222 231 236 240 246 253 259 255 256 244 261 273 292 295 288 286 282 290 290 283 278 271 273 270 268 265 265 263 268 277 287 290 290 288 287 285 284 282 280 278 278
233 243 236 227 239 247 242 248 256 256 259 251 259 263 276 285 283 286 292 290 288 289 285 276 274 265 265 265 266 266 278 288 297 293 290 287 287 287 287 286 284 283 281
247 233 237 245 243 242 252 249 246 249 260 259 262 264 271 272 277 285 287 288 288 287 285 280 274 258 266 266 262 266 276 292 290 296 295 289 290 291 291 291 290 287 285
244 236 236 246 249 251 252 251 257 253 256 258 265 273 277 277 274 278 283 277 277 279 276 279 282 280 262 261 265 267 280 287 288 295 297 294 292 288 292 296 293 290 287
234 238 244 251 247 246 253 251 253 260 255 266 269 276 277 277 274 278 274 271 267 270 276 276 276 274 275 264 262 278 283 286 292 300 299 302 300 298 300 294 293 291 290
237 249 254 259 255 259 243 242 248 250 257 267 279 278 272 277 284 281 275 269 267 267 271 276 274 275 279 278 273 277 280 282 287 290 290 287 292 304 303 302 298 291 291
244 254 259 263 263 259 258 258 260 265 268 273 271 268 269 273 273 277 273 270 266 264 272 279 276 277 276 275 277 275 277 283 282 283 280 297 308 305 304 302 303 300 301
255 254 259 252 254 254 265 269 272 271 269 269 268 268 268 275 279 274 262 265 267 271 273 272 280 281 280 276 276 278 278 284 288 294 302 299 296 294 294 299 306 304 310
265 265 270 259 252 259 247 245 259 267 278 271 267 271 273 274 270 267 264 263 267 270 274 275 276 278 279 278 274 278 272 283 282 288 291 294 297 295 299 300 300 301 306
263 274 267 268 283 277 270 271 278 281 279 275 275 276 280 278 270 261 257 261 261 266 271 274 277 281 279 278 276 279 278 282 284 289 297 296 292 287 285 292 294 299 293
317 300 287 284 294 291 274 274 283 281 279 276 275 277 279 278 277 281 277 271 269 270 269 271 275 278 276 279 283 282 277 279 285 286 295 295 297 303 299 294 289 287 288
349 333 315 312 304 298 288 291 294 292 292 288 277 277 279 282 280 278 276 277 278 279 279 280 276 276 283 281 268 269 271 273 277 287 288 297 305 297 299 297 297 294 296
338 323 311 305 300 302 294 303 306 302 302 299 291 289 289 288 279 271 272 275 276 278 283 287 276 288 281 276 274 272 271 275 279 280 289 288 297 297 300 293 296 298 291
326 321 316 311 309 306 300 308 313 309 300 296 294 293 295 292 285 311 285 287 278 283 290 294 282 270 265 269 272 279 269 275 279 281 277 284 294 293 297 297 301 289 291
324 313 312 310 304 303 302 312 311 306 297 299 301 305 300 306 300 316 317 308 305 310 307 290 289 284 285 287 291 287 286 273 270 276 287 289 298 297 301 294 291 298 317